[[{"header":{"parameterUnit":"m.s-1","parameterCategory":1,"la1":30.2991,"la2":30.254,"lo1":-89.0895,"lo2":-89.0444,"dy":0.0017,"dx":0.0017,"nx":28,"ny":28,"refTime":"2026-02-10T03:00:00:Z","depth":0,"parameterNumber":2,"parameterNumberName":"U-component_of_WINDS"},"data":[0,0,0,0,0,0,0,0,0,0,0,0,0,0,0,0,0,0,0,0,0,0,0,0,0,0,0,0,0,0,0,0,0,0,0,0,0,0,0,0,0,0,0,0,0,0,0,0,0,0,0,0,0,0,0,0,0,0,0.2131,0.2132,0,0.2149,0.2149,0.2149,0.2154,0.2154,0.2154,0.2154,0.2174,0.2175,0.2176,0,0,0,0,0,0,0,0,0,0,0,0,0,0.2104,0.2105,0.2131,0.2132,0.2132,0.2149,0.2149,0.2149,0.2154,0.2154,0.2154,0.2154,0.2174,0.2175,0.2176,0,0,0,0,0,0,0,0,0,0,0,0,0,0.2118,0.2105,0.2131,0.2136,0.2137,0.2149,0.2149,0.2149,0.2154,0.2154,0.2154,0.2154,0.2174,0.2175,0.2176,0.2185,0,0,0.2179,0.2179,0,0,0,0,0,0,0,0,0.2118,0.2119,0.2135,0.2136,0.2137,0.2149,0.2147,0.2161,0.2154,0.2148,0.2154,0.2154,0.2166,0.2168,0.2172,0.2186,0.2187,0.2179,0.218,0.218,0.218,0,0,0,0,0,0,0,0.2117,0.2119,0.2138,0.2136,0.2136,0.2138,0.214,0.215,0.2158,0.2148,0.2149,0.2151,0.2167,0.2171,0.2172,0.2187,0.2179,0.218,0.218,0.2181,0.221,0.221,0,0,0,0,0,0,0.2114,0.2118,0.2138,0.2139,0.2126,0.2139,0.2141,0.2145,0.2158,0.2159,0.2151,0.2151,0.2169,0.2171,0.2173,0.2184,0.218,0.2181,0.2181,0.221,0.221,0.221,0,0,0,0,0,0,0.2114,0.2116,0.2137,0.2128,0.2131,0.2139,0.2144,0.2146,0.215,0.2159,0.2161,0.2153,0.2169,0.2172,0.2182,0.2185,0.2181,0.2182,0.221,0.221,0.221,0.2207,0,0,0,0,0,0,0.2113,0.2116,0.2119,0.2128,0.2132,0.2145,0.2145,0.2146,0.2151,0.2151,0.2162,0.2164,0.2169,0.218,0.2183,0.2186,0.2183,0.2209,0.221,0.221,0.2207,0.2207,0.2208,0,0,0,0,0,0.2112,0.2118,0.2119,0.2121,0.2135,0.2145,0.2147,0.2152,0.2151,0.2155,0.2161,0.2164,0.2184,0.2181,0.2184,0.2188,0.2209,0.221,0.221,0.2207,0.2207,0.2208,0,0,0,0,0,0,0.2109,0.2119,0.2121,0.213,0.2136,0.2146,0.215,0.2152,0.216,0.216,0.2167,0.217,0.2179,0.2185,0.2181,0.2198,0.2197,0.2198,0.2194,0.2194,0.2194,0.2193,0.2184,0,0,0,0,0,0.211,0.2116,0.2125,0.2132,0.2135,0.2142,0.2147,0.215,0.2157,0.2161,0.2168,0.2176,0.2184,0.2189,0.2198,0.2208,0.2211,0.2212,0.2212,0.2213,0.2213,0.222,0.222,0.2212,0.2212,0.2212,0,0,0.2111,0.2117,0.2121,0.2131,0.2137,0.2144,0.2145,0.2152,0.2157,0.2162,0.2172,0.2177,0.2187,0.2197,0.2202,0.2202,0.2216,0.2213,0.2213,0.2214,0.222,0.2221,0.2222,0.2212,0.2212,0.2212,0,0,0.2116,0.2121,0.2128,0.2133,0.2142,0.2146,0.2148,0.2157,0.216,0.217,0.2174,0.2181,0.2195,0.2201,0.2207,0.2214,0.2217,0.2217,0.2219,0.2224,0.2225,0.2226,0.2229,0.223,0.2218,0.2218,0.2218,0,0.2117,0.2127,0.2131,0.2138,0.2143,0.2147,0.2154,0.2159,0.217,0.2173,0.2173,0.2191,0.2197,0.2209,0.2211,0.2215,0.2217,0.2216,0.2224,0.2225,0.2226,0.2229,0.223,0.2218,0.2218,0.2218,0.2218,0,0.2127,0.2134,0.2138,0.2148,0.2153,0.216,0.2166,0.2171,0.2174,0.2179,0.2189,0.2197,0.2207,0.221,0.2213,0.2222,0.2222,0.2223,0.2222,0.2227,0.2229,0.223,0.2218,0.2218,0.2218,0.2218,0,0,0.2131,0.2143,0.2144,0.2149,0.2158,0.2164,0.2171,0.218,0.2184,0.2192,0.2198,0.221,0.2211,0.2217,0.2221,0.2226,0.2232,0.2226,0.2227,0.2227,0.2242,0.2242,0.2243,0.2233,0.2234,0.2234,0.2242,0,0.2138,0.215,0.2155,0.2165,0.2172,0.2176,0.2182,0.2189,0.2194,0.2201,0.2206,0.2214,0.2215,0.2218,0.2223,0.223,0.2235,0.2229,0.224,0.2241,0.2238,0.2244,0.2244,0.2251,0.2243,0.2243,0.2243,0,0.2147,0.2154,0.2165,0.2173,0.2176,0.2182,0.219,0.2197,0.2205,0.2208,0.2214,0.2218,0.2226,0.2225,0.2237,0.2233,0.2238,0.2242,0.2242,0.2244,0.2242,0.2246,0.2253,0.2254,0.2245,0.2245,0.2245,0,0.2149,0.2161,0.2169,0.2173,0.2183,0.2187,0.2191,0.2199,0.2204,0.2212,0.2215,0.2224,0.2229,0.2236,0.2242,0.2241,0.2254,0.2253,0.2257,0.2257,0.226,0.226,0.2268,0.2263,0.2263,0.2263,0.2263,0,0.2156,0.2163,0.217,0.2176,0.2183,0.2188,0.2196,0.2201,0.2208,0.2214,0.2218,0.2225,0.2232,0.2239,0.2244,0.2254,0.2256,0.2259,0.2261,0.2259,0.2259,0.2262,0.2262,0.2263,0.2263,0.2263,0.2263,0,0.216,0.2165,0.2174,0.2183,0.2185,0.2191,0.2198,0.2204,0.2208,0.2217,0.2219,0.2227,0.2236,0.2242,0.2254,0.2257,0.2267,0.2269,0.2264,0.2265,0.2269,0.2268,0.228,0.2282,0.2275,0.2275,0.2275,0,0.2164,0.2169,0.2178,0.2183,0.2187,0.2194,0.2199,0.2204,0.2209,0.2219,0.2223,0.2232,0.2239,0.2253,0.2261,0.227,0.2271,0.2275,0.2273,0.2271,0.2272,0.2271,0.2272,0.2275,0.2275,0.2275,0.2275,0,0.2171,0.2173,0.218,0.2187,0.2193,0.2199,0.2206,0.2209,0.2216,0.2222,0.223,0.2236,0.2248,0.2257,0.2266,0.2272,0.2275,0.2276,0.2277,0.2276,0.2273,0.2274,0.2265,0.2275,0.2275,0.2275,0.2275,0.2275,0.2175,0.218,0.2187,0.2194,0.22,0.2205,0.2211,0.2216,0.2223,0.2232,0.2235,0.2244,0.2253,0.2266,0.2271,0.2279,0.2279,0.2281,0.2282,0.2282,0.2282,0.2271,0.2281,0.2281,0.2281,0.2281,0.2281,0,0.2183,0.2187,0.2194,0.2202,0.2208,0.2209,0.2217,0.2222,0.2229,0.2236,0.2243,0.2253,0.2262,0.227,0.2279,0.2283,0.2285,0.2286,0.2285,0.2287,0.2281,0.2279,0.2284,0.2284,0.2284,0.2284,0.2284,0.2284,0.2187,0.2195,0.2198,0.2209,0.2214,0.2222,0.2226,0.2231,0.2237,0.2248,0.2255,0.2259,0.2267,0.2276,0.2285,0.2287,0.229,0.229,0.2293,0.2288,0.2287,0.2287,0.2285,0.2291,0.2291,0.2298,0.2298,0.2298]},{"header":{"parameterUnit":"m.s-1","parameterCategory":1,"la1":30.2991,"la2":30.254,"lo1":-89.0895,"lo2":-89.0444,"dy":0.0017,"dx":0.0017,"nx":28,"ny":28,"refTime":"2026-02-10T03:00:00:Z","depth":0,"parameterNumber":3,"parameterNumberName":"V-component_of_WINDS"},"data":[0,0,0,0,0,0,0,0,0,0,0,0,0,0,0,0,0,0,0,0,0,0,0,0,0,0,0,0,0,0,0,0,0,0,0,0,0,0,0,0,0,0,0,0,0,0,0,0,0,0,0,0,0,0,0,0,0,0,3.0236,3.0236,0,3.0245,3.0245,3.0246,3.0274,3.0274,3.0275,3.0276,3.0282,3.0282,3.0281,0,0,0,0,0,0,0,0,0,0,0,0,0,3.0239,3.0239,3.0236,3.0236,3.0236,3.0245,3.0245,3.0246,3.0274,3.0274,3.0275,3.0276,3.0282,3.0282,3.0281,0,0,0,0,0,0,0,0,0,0,0,0,0,3.0242,3.0239,3.0236,3.0251,3.0253,3.0245,3.0245,3.0246,3.0274,3.0274,3.0275,3.0276,3.0282,3.0282,3.0281,3.0259,0,0,3.0279,3.0279,0,0,0,0,0,0,0,0,3.0242,3.0242,3.0249,3.025,3.0252,3.0259,3.0249,3.025,3.0273,3.0266,3.0276,3.0277,3.0274,3.0274,3.0273,3.0259,3.0259,3.0279,3.0279,3.0279,3.0279,0,0,0,0,0,0,0,3.0241,3.0241,3.024,3.0249,3.0251,3.0257,3.0258,3.0249,3.0264,3.0266,3.0268,3.0269,3.0275,3.0274,3.0274,3.0259,3.0279,3.0279,3.0278,3.0278,3.0224,3.0223,0,0,0,0,0,0,3.0239,3.0241,3.0239,3.024,3.0249,3.0256,3.0258,3.0256,3.0264,3.0267,3.0268,3.0271,3.0275,3.0274,3.0274,3.0246,3.0279,3.0278,3.0278,3.0225,3.0224,3.0222,0,0,0,0,0,0,3.0239,3.0239,3.0239,3.0241,3.0242,3.0255,3.0253,3.0256,3.0255,3.0266,3.0268,3.0265,3.0275,3.0275,3.0262,3.0247,3.0278,3.0277,3.0226,3.0224,3.0223,3.0191,0,0,0,0,0,0,3.0239,3.0239,3.0231,3.0241,3.0241,3.0228,3.0252,3.0255,3.0254,3.0257,3.0264,3.0266,3.0276,3.0263,3.0261,3.0247,3.0277,3.0227,3.0225,3.0223,3.0194,3.0189,3.0185,0,0,0,0,0,3.0239,3.0222,3.0231,3.023,3.0232,3.0227,3.0227,3.024,3.0253,3.0245,3.0251,3.0265,3.0249,3.0261,3.026,3.0245,3.0228,3.0226,3.0224,3.0196,3.019,3.0185,0,0,0,0,0,0,3.021,3.0223,3.0233,3.0219,3.0221,3.0232,3.0222,3.0234,3.0232,3.0235,3.025,3.0252,3.0236,3.0239,3.0252,3.0222,3.0241,3.0238,3.022,3.0215,3.021,3.0209,3.0276,0,0,0,0,0,3.0202,3.0197,3.0209,3.0195,3.0196,3.0208,3.0206,3.0216,3.0219,3.022,3.0226,3.0228,3.0223,3.0219,3.0215,3.0195,3.0195,3.0183,3.0179,3.0175,3.0172,3.0159,3.0153,3.0214,3.0214,3.0214,0,0,3.0185,3.0192,3.0188,3.0189,3.0192,3.0186,3.0209,3.0202,3.0196,3.0219,3.0207,3.0211,3.0213,3.0196,3.0188,3.0198,3.0155,3.0172,3.0169,3.0168,3.0156,3.015,3.0145,3.0213,3.0213,3.0213,0,0,3.015,3.0156,3.0143,3.0146,3.0151,3.0159,3.0156,3.0164,3.0168,3.0156,3.0172,3.0166,3.0157,3.0158,3.0157,3.0121,3.0132,3.0119,3.0095,3.0082,3.0077,3.0073,3.0058,3.0053,3.0116,3.0116,3.0116,0,3.0128,3.012,3.0135,3.0127,3.0126,3.0146,3.0133,3.0135,3.0137,3.0136,3.0147,3.0136,3.0139,3.0121,3.0112,3.0111,3.0106,3.0118,3.0077,3.0073,3.0069,3.0055,3.0049,3.0114,3.0114,3.0115,3.0115,0,3.0091,3.0085,3.0075,3.0077,3.0075,3.0064,3.0077,3.0073,3.0082,3.0089,3.0075,3.008,3.0076,3.0073,3.0083,3.0055,3.0061,3.0074,3.0093,3.0061,3.0048,3.0043,3.0112,3.0112,3.0113,3.0113,0,0,3.0038,3.0049,3.0045,3.0045,3.0051,3.0046,3.0035,3.0033,3.0028,3.0029,3.0018,3.001,3.0022,3.0021,3.003,3.0019,2.9988,3.0034,3.0034,3.0023,2.9955,2.9944,2.9938,2.9996,2.9995,2.9994,2.9955,0,3.0004,2.9987,3.0,2.998,2.9973,2.9992,2.9982,2.9984,2.9989,2.9983,2.9989,2.9982,3.0,2.9999,2.9989,2.9994,2.9974,2.9997,2.9985,2.9984,2.9982,2.9932,2.992,2.9882,2.995,2.9949,2.9948,0,2.9962,2.9961,2.994,2.9946,2.9944,2.9935,2.9932,2.9927,2.9928,2.9933,2.9931,2.9943,2.9931,2.995,2.9932,2.9947,2.9943,2.9945,2.9943,2.9942,2.9963,2.9926,2.9871,2.9864,2.9941,2.9941,2.9942,0,2.9923,2.9916,2.9903,2.9903,2.991,2.9903,2.9905,2.9908,2.9905,2.9902,2.99,2.9896,2.9893,2.9888,2.9898,2.9912,2.9877,2.9899,2.9879,2.9879,2.987,2.987,2.9811,2.987,2.987,2.987,2.987,0,2.9882,2.9868,2.9885,2.9876,2.9861,2.9875,2.9859,2.9863,2.9865,2.9856,2.9872,2.9863,2.9877,2.9869,2.9876,2.9859,2.9858,2.986,2.9861,2.9857,2.9857,2.9854,2.9856,2.9869,2.9869,2.9869,2.987,0,2.9835,2.9847,2.9832,2.984,2.9842,2.983,2.9835,2.9827,2.9833,2.9822,2.982,2.9829,2.982,2.983,2.9821,2.9826,2.9802,2.9809,2.9802,2.9803,2.9782,2.9783,2.9718,2.9709,2.9775,2.9774,2.9774,0,2.9808,2.9798,2.9804,2.98,2.9802,2.9795,2.9791,2.9805,2.98,2.98,2.9791,2.9784,2.9778,2.9763,2.9768,2.9761,2.9766,2.9744,2.9765,2.9761,2.9764,2.9763,2.9761,2.9739,2.9738,2.9738,2.9737,0,2.9758,2.9763,2.9759,2.9756,2.9751,2.9749,2.9748,2.9743,2.9757,2.9751,2.9743,2.9739,2.973,2.9721,2.9716,2.9716,2.9728,2.973,2.9725,2.972,2.9716,2.9716,2.9788,2.9732,2.9732,2.9733,2.9733,2.9733,2.9719,2.971,2.9713,2.9706,2.9707,2.9705,2.9697,2.9702,2.9696,2.969,2.9698,2.9687,2.9687,2.968,2.968,2.967,2.9679,2.9672,2.967,2.9667,2.9663,2.9719,2.9669,2.9669,2.9669,2.9669,2.9669,0,2.9668,2.967,2.9664,2.9662,2.9657,2.967,2.9669,2.9663,2.9653,2.9652,2.9647,2.9636,2.9627,2.9631,2.9623,2.9614,2.9619,2.9612,2.9612,2.9611,2.9657,2.9661,2.9608,2.9608,2.9608,2.9608,2.9608,2.9608,2.964,2.9625,2.9631,2.9615,2.9618,2.9607,2.9605,2.9603,2.9602,2.959,2.9583,2.9586,2.9587,2.9579,2.9571,2.9572,2.9567,2.9557,2.956,2.9602,2.9608,2.9614,2.9618,2.9557,2.9557,2.9515,2.9515,2.9515]}]]